Weather History for Ankara, Turkey

Change the Weather History Date:

Saturday, February 2, 2013

  Actual Average Record
Temperature  
Mean Temperature 35 °F -  
Max Temperature 46 °F 42 °F 55 °F (1999)
Min Temperature 24 °F 21 °F -11 °F (2012)
Degree Days  
Heating Degree Days 30    
Moisture  
Dew Point 26 °F    
Average Humidity 69    
Maximum Humidity 93    
Minimum Humidity 25    
Precipitation  
Precipitation 0.00 in - - ()
Sea Level Pressure  
Sea Level Pressure 29.96 in    
Wind  
Wind Speed 5 mph ()    
Max Wind Speed 13 mph    
Max Gust Speed -    
Visibility 7.2 miles    
Events      
Averages and records for this station are not official NWS values.
T = Trace of Precipitation, MM = Missing Value Source: Averaged Metar Reports

Daily Weather History Graph

Daily Weather History Graph

Search for Another Location

Airport:

Trip Planner

Search our weather history database for the weather conditions in past years. The results will help you decide how hot, cold, wet, or windy it might be!

Date:

Astronomy

Feb. 02, 2013 Rise Set
Actual Time 6:55 AM EET 5:08 PM EET
Civil Twilight 6:27 AM EET 5:36 PM EET
Nautical Twilight 5:54 AM EET 6:09 PM EET
Astronomical Twilight 5:23 AM EET 6:40 PM EET
Moon 11:59 PM EET (2/2) 9:52 AM EET (2/2)
Length of Visible Light 11h 09m
Length of Day
10h 12m
Waning Gibbous, 63% of the Moon is Illuminated
Feb 2
Waning Gibbous
Feb 3
Last Quarter
Feb 10
New
Feb 17
First Quarter
Feb 25
Full

Hourly Weather History & Observations

Time (EET) Temp. Windchill Dew Point Humidity Pressure Visibility Wind Dir Wind Speed Gust Speed Precip Events Conditions
12:20 AM 32.0 °F - 26.6 °F 80% 29.89 in - Variable 1.2 mph - N/A   Clear
12:50 AM 32.0 °F 26.4 °F 26.6 °F 80% 29.89 in - South 5.8 mph - N/A   Clear
1:20 AM 32.0 °F 26.4 °F 26.6 °F 80% 29.89 in - SSW 5.8 mph - N/A   Clear
1:50 AM 32.0 °F 25.6 °F 26.6 °F 80% 29.89 in - South 6.9 mph - N/A   Clear
2:00 AM 33 °F - 25 °F 64% 29.99 in 6 mi South 6.9 mph - -  
2:20 AM 32.0 °F 24.8 °F 24.8 °F 75% 29.89 in - South 8.1 mph - N/A   Clear
2:50 AM 32.0 °F 27.5 °F 26.6 °F 80% 29.89 in - SE 4.6 mph - N/A   Clear
3:20 AM 32.0 °F 27.5 °F 26.6 °F 80% 29.89 in - SSE 4.6 mph - N/A   Clear
3:50 AM 32.0 °F 26.4 °F 24.8 °F 75% 29.89 in - South 5.8 mph - N/A   Clear
4:20 AM 30.2 °F 24.3 °F 24.8 °F 80% 29.89 in - South 5.8 mph - N/A   Clear
4:50 AM 32.0 °F 26.4 °F 26.6 °F 80% 29.92 in - South 5.8 mph - N/A   Clear
5:20 AM 32.0 °F 25.6 °F 24.8 °F 75% 29.92 in - South 6.9 mph - N/A   Clear
5:50 AM 30.2 °F 21.9 °F 24.8 °F 80% 29.92 in - South 9.2 mph - N/A   Clear
6:20 AM 30.2 °F 25.4 °F 24.8 °F 80% 29.92 in - SSE 4.6 mph - N/A   Clear
6:50 AM 24.8 °F - 23.0 °F 93% 29.95 in - Variable 1.2 mph - N/A   Clear
7:20 AM 24.8 °F - 23.0 °F 93% 29.95 in - Variable 1.2 mph - N/A   Clear
7:50 AM 24.8 °F - 23.0 °F 93% 29.95 in - Variable 2.3 mph - N/A   Clear
8:00 AM 25 °F - 23 °F 90% 30.10 in 12 mi 2.3 mph - -  
8:20 AM 30.2 °F - 24.8 °F 80% 29.98 in - Variable 2.3 mph - N/A   Clear
8:50 AM 30.2 °F - 24.8 °F 80% 29.98 in - Variable 2.3 mph - N/A   Clear
9:20 AM 32.0 °F - 26.6 °F 80% 29.98 in - Variable 1.2 mph - N/A   Clear
9:50 AM 35.6 °F - 26.6 °F 70% 29.98 in - Variable 2.3 mph - N/A   Clear
10:20 AM 39.2 °F 35.9 °F 26.6 °F 61% 29.98 in - South 4.6 mph - N/A   Clear
10:50 AM 39.2 °F 35.9 °F 24.8 °F 56% 29.98 in - South 4.6 mph - N/A   Clear
11:20 AM 41.0 °F 36.4 °F 23.0 °F 49% 29.98 in - SSW 6.9 mph - N/A   Clear
11:50 AM 42.8 °F 37.5 °F 23.0 °F 46% 29.98 in - SW 9.2 mph - N/A   Clear
12:20 PM 44.6 °F 40.7 °F 21.2 °F 39% 29.95 in 6.2 mi SSW 6.9 mph - N/A   Scattered Clouds
12:50 PM 44.6 °F 40.7 °F 21.2 °F 39% 29.95 in 6.2 mi SSW 6.9 mph - N/A   Scattered Clouds
1:20 PM 46.4 °F 41.5 °F 24.8 °F 43% 29.95 in 6.2 mi SW 10.4 mph - N/A   Scattered Clouds
1:50 PM 46.4 °F 40.7 °F 26.6 °F 46% 29.95 in 6.2 mi SW 12.7 mph - N/A   Scattered Clouds
2:00 PM 46 °F - 22 °F 25% 30.01 in 12 mi SW 12.7 mph - -   Scattered Clouds
2:20 PM 44.6 °F 38.4 °F 23.0 °F 43% 29.95 in 6.2 mi South 12.7 mph - N/A   Mostly Cloudy
2:50 PM 46.4 °F 40.7 °F 24.8 °F 43% 29.95 in 6.2 mi South 12.7 mph - N/A   Mostly Cloudy
3:20 PM 44.6 °F 38.4 °F 23.0 °F 43% 29.95 in 6.2 mi SSW 12.7 mph - N/A   Mostly Cloudy
3:50 PM 44.6 °F 38.8 °F 24.8 °F 46% 29.95 in 6.2 mi SSW 11.5 mph - N/A   Mostly Cloudy
4:20 PM 44.6 °F 39.2 °F 24.8 °F 46% 29.95 in 6.2 mi South 10.4 mph - N/A   Mostly Cloudy
4:50 PM 42.8 °F 38.6 °F 26.6 °F 53% 29.95 in 6.2 mi South 6.9 mph - N/A   Mostly Cloudy
5:20 PM 41.0 °F 39.0 °F 28.4 °F 61% 29.95 in 6.2 mi ESE 3.5 mph - N/A   Mostly Cloudy
5:50 PM 41.0 °F 38.0 °F 26.6 °F 57% 29.95 in 6.2 mi SE 4.6 mph - N/A   Mostly Cloudy
6:20 PM 41.0 °F 38.0 °F 26.6 °F 57% 29.98 in 6.2 mi SSE 4.6 mph - N/A   Mostly Cloudy
6:50 PM 39.2 °F - 26.6 °F 61% 29.98 in - Variable 2.3 mph - N/A   Clear
7:20 PM 39.2 °F 37.0 °F 26.6 °F 61% 29.98 in - ESE 3.5 mph - N/A   Clear
7:50 PM 33.8 °F 29.6 °F 28.4 °F 81% 29.98 in - NNE 4.6 mph - N/A   Clear
8:00 PM 34 °F - 28 °F 72% 30.12 in 12 mi NNE 4.6 mph - -   Clear
8:20 PM 33.8 °F 30.8 °F 28.4 °F 81% 29.98 in - North 3.5 mph - N/A   Clear
8:50 PM 33.8 °F 27.7 °F 28.4 °F 81% 29.98 in - NE 6.9 mph - N/A   Clear
9:20 PM 32.0 °F - 28.4 °F 87% 29.98 in - Variable 2.3 mph - N/A   Clear
9:50 PM 32.0 °F - 28.4 °F 87% 30.01 in - Variable 2.3 mph - N/A   Clear
10:20 PM 32.0 °F - 28.4 °F 87% 29.98 in - Variable 1.2 mph - N/A   Clear
10:50 PM 32.0 °F 27.5 °F 28.4 °F 87% 30.01 in - NNE 4.6 mph - N/A   Clear
11:20 PM 33.8 °F 29.6 °F 28.4 °F 81% 30.01 in 6.2 mi North 4.6 mph - N/A   Scattered Clouds
11:50 PM 32.0 °F - 28.4 °F 87% 30.01 in - Variable 2.3 mph - N/A   Clear